Flag for Madagascar Weather past 2 weeks in Toamasina, Madagascar

79 °F

Thundershowers. Passing clouds.

Feels Like: 82 °F
Forecast: 75 / 87 °F
Wind: 2 mph from East

Location: Tamatave

Current Time: Nov 27, 2015 at 8:25:17 PM

Latest Report: Nov 27, 2015 at 8:00 PM

Visibility: N/A

Pressure: 29.95 "Hg

Humidity: 89%

Dew point: 75 °F

Location of ToamasinaLocation

Historic Weather in Toamasina — Graph


Toamasina temperature yesterday

Maximum temperature yesterday: 86 °F (at 2:00 PM)
Minimum temperature yesterday: 73 °F (at 3:00 AM)
Average temperature yesterday: 80 °F

Past Weeks' High & Low Weather Summary

High86 °F (Nov 16, 10:00 AM)100% (Nov 16, 1:00 AM)30.07 "Hg (Nov 16, 1:00 AM)
Low66 °F (Nov 13, 12:00 AM)58% (Nov 13, 9:00 AM)29.77 "Hg (Nov 24, 4:00 PM)
Average78 °F83%29.93 "Hg
* Reported Nov 12 7:00 PM — Nov 27 7:00 PM, Toamasina, Weather by CustomWeather, © 2015

Note: Actual official high and low records may vary slightly from our data, if they occured in-between our weather recording intervals... More about our weather records


Toamasina weather history for previous 24 hours

Time TempWeatherWind HumidityBarometerVisibility
7:00 PM
Fri, Nov 27
81 °FPassing clouds.2 mph84%29.95 "HgN/A
6:00 PM81 °FScattered clouds.12 mph84%29.89 "HgN/A
5:00 PM82 °FScattered clouds.14 mph79%29.89 "HgN/A
4:00 PM84 °FScattered clouds.14 mph79%29.86 "HgN/A
3:00 PM84 °FPassing clouds.14 mph79%29.86 "HgN/A
2:00 PM86 °FPassing clouds.16 mph75%29.89 "HgN/A
1:00 PM86 °FPassing clouds.16 mph75%29.89 "HgN/A
12:00 PM84 °FPassing clouds.12 mph79%29.92 "HgN/A
11:00 AM86 °FScattered clouds.12 mph75%29.95 "HgN/A
10:00 AM84 °FBroken clouds.12 mph74%29.95 "HgN/A
9:00 AM84 °FScattered clouds.7 mph79%29.95 "HgN/A
8:00 AM82 °FScattered clouds.5 mph74%29.92 "HgN/A
7:00 AM81 °FPassing clouds.7 mph84%29.92 "HgN/A
6:00 AM75 °FPassing clouds.No wind94%29.92 "HgN/A
5:00 AM73 °FScattered showers. Scattered clouds.No wind100%29.89 "HgN/A
4:00 AM75 °FScattered showers. Partly cloudy.No wind94%29.86 "HgN/A
3:00 AM75 °FScattered showers. Partly cloudy.No wind94%29.86 "HgN/A
2:00 AM77 °FScattered showers. Passing clouds.2 mph94%29.89 "HgN/A
1:00 AM77 °FScattered showers. Partly cloudy.2 mph94%29.92 "HgN/A
12:00 AM77 °FScattered showers. Partly cloudy.2 mph94%29.92 "HgN/A
11:00 PM
Thu, Nov 26
79 °FScattered showers. Passing clouds.2 mph89%29.92 "HgN/A
10:00 PM79 °FScattered showers. Passing clouds.7 mph89%29.92 "HgN/A
9:00 PM79 °FPassing clouds.7 mph89%29.92 "HgN/A
8:00 PM79 °FPassing clouds.7 mph89%29.89 "HgN/A
Weather by CustomWeather, © 2015

See weather overviewHow to use our weather pages